Weather History for New Iberia, LA

Change the Weather History Date:

Sunday, March 9, 2014

  Actual Average Record
Temperature  
Mean Temperature 62 °F 61 °F  
Max Temperature 72 °F 71 °F 83 °F (1985)
Min Temperature 52 °F 50 °F 26 °F (1996)
Degree Days  
Heating Degree Days 3 6  
Month to date heating degree days 98 58  
Since 1 July heating degree days 1622 1274  
Cooling Degree Days 0 1  
Month to date cooling degree days 8 9  
Year to date cooling degree days 26 40  
Growing Degree Days 12 (Base 50)    
Moisture  
Dew Point 53 °F    
Average Humidity 75    
Maximum Humidity 96    
Minimum Humidity 53    
Precipitation  
Precipitation T in 0.12 in 1.25 in (1972)
Month to date precipitation 0.56 1.24  
Year to date precipitation 8.90 10.65  
Sea Level Pressure  
Sea Level Pressure 30.19 in    
Wind  
Wind Speed 5 mph (NNE)    
Max Wind Speed 13 mph    
Max Gust Speed 15 mph    
Visibility 9 miles    
Events Rain    
T = Trace of Precipitation, MM = Missing Value Source: NWS Daily Summary

Daily Weather History Graph

Daily Weather History Graph

Search for Another Location

Airport:

Trip Planner

Search our weather history database for the weather conditions in past years. The results will help you decide how hot, cold, wet, or windy it might be!

Date:

Astronomy

Mar. 09, 2014 Rise Set
Actual Time 7:24 AM CDT 7:12 PM CDT
Civil Twilight 7:00 AM CDT 7:35 PM CDT
Nautical Twilight 6:32 AM CDT 8:03 PM CDT
Astronomical Twilight 6:05 AM CDT 8:31 PM CDT
Moon 1:22 PM CDT (3/9) 3:32 AM CDT (3/9)
Length of Visible Light 12h 35m
Length of Day
11h 47m
First Quarter, 61% of the Moon is Illuminated
Mar 9
First Quarter
Mar 16
Full
Mar 23
Last Quarter
Mar 30
New
Apr 7
First Quarter

Hourly Weather History & Observations

Time (CDT) Temp. Dew Point Humidity Pressure Visibility Wind Dir Wind Speed Gust Speed Precip Events Conditions
12:53 AM 59.0 °F 54.0 °F 83% 30.18 in 10.0 mi NNE 3.5 mph - N/A   Overcast
1:53 AM 57.9 °F 53.1 °F 84% 30.17 in 10.0 mi North 3.5 mph - N/A   Overcast
3:53 AM 55.9 °F 52.0 °F 87% 30.17 in 10.0 mi NNW 5.8 mph - N/A   Mostly Cloudy
4:53 AM 55.0 °F 52.0 °F 89% 30.17 in 10.0 mi Calm Calm - N/A   Clear
5:53 AM 52.0 °F 50.0 °F 93% 30.18 in 6.0 mi East 3.5 mph - N/A   Scattered Clouds
6:53 AM 55.9 °F 53.1 °F 90% 30.21 in 8.0 mi West 5.8 mph - N/A   Clear
7:53 AM 55.9 °F 53.1 °F 90% 30.22 in 5.0 mi WSW 3.5 mph - N/A   Partly Cloudy
8:53 AM 57.9 °F 54.0 °F 87% 30.22 in 8.0 mi North 4.6 mph - 0.00 in Rain Light Rain
9:53 AM 60.1 °F 55.0 °F 83% 30.24 in 8.0 mi South 4.6 mph - 0.00 in   Clear
10:53 AM 64.0 °F 57.0 °F 78% 30.26 in 10.0 mi Calm Calm - N/A   Clear
11:53 AM 68.0 °F 54.0 °F 61% 30.25 in 10.0 mi NNE 6.9 mph - N/A   Clear
12:53 PM 69.1 °F 54.0 °F 58% 30.23 in 10.0 mi NE 6.9 mph - N/A   Clear
1:53 PM 70.0 °F 53.1 °F 55% 30.21 in 10.0 mi Calm Calm - N/A   Clear
2:53 PM 71.1 °F 53.1 °F 53% 30.18 in 10.0 mi NE 5.8 mph - N/A   Clear
3:53 PM 71.1 °F 54.0 °F 55% 30.16 in 10.0 mi NNE 10.4 mph - N/A   Overcast
4:53 PM 72.0 °F 54.0 °F 53% 30.14 in 10.0 mi NNE 12.7 mph - N/A   Partly Cloudy
5:53 PM 71.1 °F 54.0 °F 55% 30.14 in 10.0 mi North 8.1 mph - N/A   Clear
6:53 PM 66.9 °F 54.0 °F 63% 30.16 in 10.0 mi North 5.8 mph - N/A   Clear
7:53 PM 64.9 °F 53.1 °F 65% 30.18 in 10.0 mi North 4.6 mph - N/A   Clear
8:53 PM 63.0 °F 53.1 °F 70% 30.19 in 10.0 mi North 4.6 mph - N/A   Clear
9:53 PM 62.1 °F 53.1 °F 72% 30.19 in 10.0 mi NNE 5.8 mph - N/A   Clear
10:53 PM 60.1 °F 55.0 °F 83% 30.20 in 10.0 mi Calm Calm - N/A   Clear
11:53 PM 57.0 °F 52.0 °F 83% 30.19 in 9.0 mi North - - N/A   Clear
12:53 AM 57.0 °F 52.0 °F 83% 30.17 in 9.0 mi Calm Calm - N/A   Clear